Flag for Canada Weather past 2 weeks in Coquitlam, British Columbia, Canada

Now
54 °F

Cool.


Feels Like: 50 °F
Forecast: 36 / 54 °F
Wind: 14 mph from East

Location: P. Meadows Coastal Station

Current Time: Feb 27, 2015 at 6:16:06 PM

Latest Report: Feb 27, 2015 at 5:00 PM


Visibility: N/A

Pressure: 29.86 "Hg

Humidity: 33%

Dew point: 25 °F

Location of CoquitlamLocation

Historic Weather in Coquitlam — Graph

°F

Coquitlam temperature yesterday

Maximum temperature yesterday: 50 °F (at 4:00 PM)
Minimum temperature yesterday: 42 °F (at 4:00 AM)
Average temperature yesterday: 45 °F

Past Weeks' High & Low Weather Summary

 TemperatureHumidityPressure
High59 °F (Feb 16, 2:00 PM)100% (Feb 15, 4:00 AM)30.50 "Hg (Feb 15, 4:00 AM)
Low30 °F (Feb 23, 7:00 AM)28% (Feb 16, 12:00 PM)29.77 "Hg (Feb 27, 7:00 AM)
Average45 °F84%30.27 "Hg
* Reported Feb 12 5:00 PM — Feb 27 5:00 PM, Coquitlam, Weather by CustomWeather, © 2015

Note: Actual official high and low records may vary slightly from our data, if they occured in-between our weather recording intervals... More about our weather records

Advertising

Coquitlam weather history for previous 24 hours

 ConditionsComfort  
Time TempWeatherWind HumidityBarometerVisibility
5:00 PM
Fri, Feb 27
54 °FCool.14 mph33%29.86 "HgN/A
4:00 PM56 °FRefreshingly cool.12 mph33%29.85 "HgN/A
3:00 PM57 °FRefreshingly cool.14 mph34%29.83 "HgN/A
2:00 PM54 °FCool.1 mph50%29.83 "HgN/A
1:00 PM53 °FCool.3 mph64%29.83 "HgN/A
12:00 PM50 °FCool.2 mph75%29.82 "HgN/A
11:00 AM49 °FCool.3 mph72%29.82 "HgN/A
10:00 AM47 °FCool.2 mph83%29.80 "HgN/A
9:00 AM46 °FCool.1 mph88%29.79 "HgN/A
8:00 AM39 °FChilly.1 mph98%29.78 "HgN/A
7:00 AM39 °FChilly.1 mph98%29.77 "HgN/A
6:00 AM39 °FChilly.1 mph95%29.78 "HgN/A
5:00 AM41 °FQuite cool.No wind95%29.78 "HgN/A
4:00 AM43 °FQuite cool.No wind92%29.78 "HgN/A
3:00 AM44 °FQuite cool.1 mph89%29.79 "HgN/A
2:00 AM46 °FCool.3 mph75%29.81 "HgN/A
1:00 AM43 °FQuite cool.3 mph92%29.82 "HgN/A
12:00 AM45 °FQuite cool.5 mph86%29.84 "HgN/A
11:00 PM
Thu, Feb 26
44 °FQuite cool.7 mph90%29.86 "HgN/A
10:00 PM45 °FQuite cool.1 mph85%29.88 "HgN/A
9:00 PM45 °FQuite cool.1 mph83%29.91 "HgN/A
8:00 PM46 °FCool.3 mph75%29.93 "HgN/A
7:00 PM46 °FCool.5 mph74%29.95 "HgN/A
6:00 PM48 °FCool.2 mph74%29.97 "HgN/A
Weather by CustomWeather, © 2015

See weather overviewHow to use our weather pages